| time (UTC) | temp F | wind direction | speed MPH | gust MPH | rain 1hr in | rain 24hr in | rain mn in | humidity % | barometer mb |
| 20260504043848 | 45 | 299 | 0.0 | 0.0 | 0.20 | 0.91 | 0.06 | 95 | 1004.8 |
| 20260504043327 | 45 | 300 | 0.0 | 0.0 | 0.20 | 0.91 | 0.06 | 95 | 1005.0 |
| 20260504042856 | 45 | 299 | 0.0 | 0.0 | 0.16 | 0.87 | 0.06 | 95 | 1005.0 |
| 20260504042343 | 45 | 300 | 0.0 | 0.0 | 0.20 | 0.87 | 0.06 | 95 | 1005.0 |
| 20260504041852 | 45 | 299 | 0.0 | 0.0 | 0.20 | 0.87 | 0.06 | 95 | 1005.0 |
| 20260504041340 | 45 | 299 | 0.0 | 0.0 | 0.16 | 0.87 | 0.05 | 95 | 1005.0 |
| 20260504040847 | 45 | 299 | 0.0 | 0.0 | 0.16 | 0.87 | 0.05 | 95 | 1005.1 |
| 20260504040326 | 45 | 299 | 0.0 | 2.0 | 0.16 | 0.87 | 0.05 | 95 | 1005.2 |
| 20260504035824 | 45 | 300 | 1.0 | 2.0 | 0.16 | 0.83 | 0.04 | 95 | 1005.2 |
| 20260504035330 | 45 | 300 | 1.0 | 2.0 | 0.12 | 0.79 | 0.03 | 94 | 1005.2 |
| 20260504034857 | 45 | 299 | 0.0 | 2.0 | 0.12 | 0.79 | 0.03 | 94 | 1005.1 |
| 20260504034324 | 45 | 300 | 1.0 | 2.0 | 0.16 | 0.79 | 0.03 | 94 | 1005.1 |
| 20260504033830 | 45 | 300 | 0.0 | 2.0 | 0.12 | 0.75 | 0.02 | 94 | 1005.1 |
| 20260504033351 | 45 | 300 | 1.0 | 2.0 | 0.12 | 0.75 | 0.02 | 94 | 1005.2 |
| 20260504032830 | 45 | 300 | 0.0 | 5.0 | 0.12 | 0.75 | 0.02 | 94 | 1005.2 |
| 20260504032331 | 45 | 156 | 2.0 | 5.0 | 0.08 | 0.71 | 0.02 | 94 | 1005.1 |
| 20260504031852 | 45 | 196 | 1.0 | 5.0 | 0.08 | 0.71 | 0.02 | 94 | 1005.2 |
| 20260504031330 | 45 | 190 | 2.0 | 6.0 | 0.08 | 0.71 | 0.02 | 94 | 1005.2 |
| 20260504030851 | 45 | 178 | 3.0 | 7.0 | 0.08 | 0.71 | 0.02 | 94 | 1005.2 |
| 20260504030351 | 45 | 161 | 3.0 | 7.0 | 0.08 | 0.71 | 0.02 | 93 | 1005.3 |
| 20260504025836 | 45 | 153 | 3.0 | 8.0 | 0.04 | 0.67 | 0.01 | 93 | 1005.4 |
| 20260504025324 | 45 | 184 | 3.0 | 8.0 | 0.04 | 0.67 | 0.01 | 93 | 1005.4 |
| 20260504024852 | 45 | 187 | 5.0 | 9.0 | 0.04 | 0.67 | 0.01 | 93 | 1005.4 |
| 20260504024351 | 45 | 190 | 3.0 | 6.0 | 0.00 | 0.63 | 0.00 | 93 | 1005.5 |
| 20260504023839 | 45 | 167 | 3.0 | 7.0 | 0.00 | 0.63 | 0.00 | 93 | 1005.6 |
| 20260504023328 | 45 | 161 | 3.0 | 6.0 | 0.00 | 0.63 | 0.00 | 92 | 1005.7 |
| 20260504022836 | 45 | 175 | 2.0 | 6.0 | 0.00 | 0.63 | 0.00 | 92 | 1005.7 |
| 20260504022324 | 45 | 157 | 2.0 | 8.0 | 0.00 | 0.63 | 0.00 | 92 | 1005.9 |
| 20260504021833 | 45 | 171 | 3.0 | 7.0 | 0.00 | 0.63 | 0.00 | 92 | 1006.0 |
| 20260504021400 | 46 | 155 | 3.0 | 6.0 | 0.00 | 0.71 | 0.00 | 92 | 1006.0 |
| 20260504020849 | 46 | 192 | 3.0 | 8.0 | 0.00 | 0.71 | 0.00 | 92 | 1006.1 |
| 20260504020337 | 46 | 163 | 3.0 | 8.0 | 0.00 | 0.71 | 0.00 | 92 | 1006.1 |
| 20260504015827 | 46 | 152 | 3.0 | 7.0 | 0.00 | 0.71 | 0.00 | 93 | 1006.1 |
| 20260504015335 | 46 | 175 | 3.0 | 6.0 | 0.00 | 0.71 | 0.00 | 93 | 1006.2 |
| 20260504014824 | 46 | 159 | 3.0 | 5.0 | 0.00 | 0.71 | 0.00 | 93 | 1006.2 |
| 20260504014352 | 46 | 183 | 2.0 | 5.0 | 0.00 | 0.71 | 0.00 | 93 | 1006.2 |
| 20260504013852 | 46 | 170 | 2.0 | 6.0 | 0.00 | 0.71 | 0.00 | 94 | 1006.3 |
| 20260504013400 | 46 | 172 | 2.0 | 6.0 | 0.00 | 0.71 | 0.00 | 94 | 1006.2 |
| 20260504012828 | 46 | 150 | 2.0 | 3.0 | 0.00 | 0.71 | 0.00 | 94 | 1006.2 |
| 20260504012328 | 46 | 155 | 1.0 | 3.0 | 0.00 | 0.71 | 0.00 | 94 | 1006.3 |
| 20260504011828 | 46 | 155 | 1.0 | 4.0 | 0.00 | 0.71 | 0.00 | 94 | 1006.3 |
| 20260504011329 | 45 | 153 | 2.0 | 4.0 | 0.00 | 0.79 | 0.00 | 94 | 1006.4 |
| 20260504010830 | 45 | 173 | 1.0 | 4.0 | 0.00 | 0.79 | 0.00 | 94 | 1006.4 |
| 20260504010331 | 45 | 173 | 2.0 | 4.0 | 0.00 | 0.79 | 0.00 | 95 | 1006.4 |
| 20260504005832 | 45 | 148 | 1.0 | 3.0 | 0.00 | 0.79 | 0.00 | 95 | 1006.5 |
| 20260504005332 | 45 | 148 | 0.0 | 0.0 | 0.00 | 0.79 | 0.00 | 95 | 1006.7 |
| 20260504004853 | 45 | 148 | 0.0 | 0.0 | 0.00 | 0.79 | 0.00 | 95 | 1006.8 |
| 20260504004349 | 45 | 148 | 0.0 | 0.0 | 0.00 | 0.79 | 0.00 | 95 | 1006.8 |
| 20260504003857 | 45 | 148 | 0.0 | 0.0 | 0.00 | 0.79 | 0.00 | 95 | 1006.9 |
| 20260504003324 | 45 | 148 | 0.0 | 0.0 | 0.00 | 0.79 | 0.00 | 95 | 1007.0 |
| 20260504002825 | 45 | 148 | 0.0 | 0.0 | 0.00 | 0.79 | 0.00 | 95 | 1007.1 |
| 20260504002327 | 45 | 148 | 0.0 | 3.0 | 0.00 | 0.79 | 0.00 | 95 | 1007.0 |
| 20260504001847 | 45 | 148 | 0.0 | 3.0 | 0.00 | 0.79 | 0.00 | 95 | 1007.1 |
| 20260504001327 | 45 | 148 | 1.0 | 2.0 | 0.00 | 0.83 | 0.00 | 95 | 1007.2 |
| 20260504000828 | 45 | 148 | 0.0 | 2.0 | 0.00 | 0.83 | 0.00 | 95 | 1007.3 |
| 20260504000335 | 45 | 148 | 0.0 | 3.0 | 0.00 | 0.83 | 0.00 | 95 | 1007.4 |
| 20260503235842 | 45 | 148 | 1.0 | 3.0 | 0.00 | 0.83 | 0.00 | 95 | 1007.4 |
| 20260503235331 | 45 | 148 | 1.0 | 3.0 | 0.00 | 0.83 | 0.00 | 95 | 1007.4 |
| 20260503234824 | 45 | 148 | 1.0 | 3.0 | 0.00 | 0.83 | 0.00 | 95 | 1007.5 |
| 20260503234349 | 45 | 148 | 2.0 | 3.0 | 0.00 | 0.83 | 0.00 | 95 | 1007.6 |
| 20260503233835 | 45 | 148 | 1.0 | 2.0 | 0.00 | 0.83 | 0.00 | 95 | 1007.7 |
| 20260503233324 | 45 | 148 | 1.0 | 2.0 | 0.00 | 0.83 | 0.00 | 94 | 1007.7 |
| 20260503232824 | 45 | 148 | 1.0 | 3.0 | 0.00 | 0.83 | 0.00 | 94 | 1007.7 |
| 20260503232345 | 45 | 148 | 1.0 | 3.0 | 0.00 | 0.83 | 0.00 | 94 | 1007.7 |
| 20260503231826 | 45 | 148 | 0.0 | 1.0 | 0.00 | 0.83 | 0.00 | 94 | 1007.9 |
| 20260503231348 | 45 | 148 | 0.0 | 2.0 | 0.00 | 0.87 | 0.00 | 94 | 1008.0 |
| 20260503230835 | 45 | 148 | 1.0 | 2.0 | 0.00 | 0.87 | 0.00 | 94 | 1008.0 |
| 20260503230324 | 45 | 148 | 1.0 | 2.0 | 0.00 | 0.87 | 0.00 | 94 | 1008.0 |
| 20260503225824 | 45 | 148 | 1.0 | 2.0 | 0.00 | 0.87 | 0.00 | 94 | 1008.0 |
| 20260503225325 | 45 | 148 | 1.0 | 2.0 | 0.00 | 0.87 | 0.00 | 94 | 1008.1 |
| 20260503224825 | 45 | 148 | 0.0 | 1.0 | 0.00 | 0.87 | 0.00 | 94 | 1008.2 |
| 20260503224326 | 45 | 148 | 0.0 | 2.0 | 0.00 | 0.87 | 0.00 | 95 | 1008.2 |
| 20260503223827 | 45 | 148 | 0.0 | 2.0 | 0.00 | 0.87 | 0.00 | 94 | 1008.2 |
| 20260503223327 | 45 | 148 | 0.0 | 2.0 | 0.00 | 0.87 | 0.00 | 94 | 1008.2 |
| 20260503222848 | 45 | 148 | 0.0 | 2.0 | 0.00 | 0.87 | 0.00 | 94 | 1008.3 |
| 20260503222327 | 45 | 148 | 1.0 | 2.0 | 0.00 | 0.87 | 0.00 | 94 | 1008.3 |
| 20260503221835 | 45 | 148 | 0.0 | 1.0 | 0.00 | 0.87 | 0.00 | 94 | 1008.4 |
| 20260503221324 | 45 | 148 | 0.0 | 1.0 | 0.00 | 0.87 | 0.17 | 94 | 1008.4 |
| 20260503220825 | 45 | 148 | 1.0 | 1.0 | 0.00 | 0.87 | 0.17 | 94 | 1008.4 |
| 20260503220332 | 45 | 148 | 0.0 | 2.0 | 0.00 | 0.87 | 0.17 | 94 | 1008.4 |
| 20260503215841 | 45 | 148 | 1.0 | 2.0 | 0.00 | 0.87 | 0.17 | 94 | 1008.5 |
| 20260503215348 | 45 | 148 | 0.0 | 0.0 | 0.00 | 0.87 | 0.17 | 94 | 1008.5 |
| 20260503214848 | 45 | 148 | 0.0 | 0.0 | 0.00 | 0.87 | 0.17 | 94 | 1008.6 |
| 20260503214328 | 45 | 148 | 0.0 | 0.0 | 0.00 | 0.87 | 0.17 | 94 | 1008.6 |
| 20260503213849 | 45 | 148 | 0.0 | 1.0 | 0.00 | 0.87 | 0.17 | 94 | 1008.7 |
| 20260503213329 | 45 | 148 | 0.0 | 2.0 | 0.00 | 0.87 | 0.17 | 94 | 1008.7 |
| 20260503212830 | 45 | 148 | 1.0 | 2.0 | 0.00 | 0.87 | 0.17 | 94 | 1008.7 |
| 20260503212329 | 45 | 148 | 0.0 | 1.0 | 0.00 | 0.87 | 0.17 | 94 | 1008.8 |
| 20260503211830 | 45 | 148 | 0.0 | 1.0 | 0.00 | 0.87 | 0.17 | 94 | 1008.8 |
| 20260503211330 | 45 | 148 | 0.0 | 1.0 | 0.00 | 0.87 | 0.17 | 94 | 1008.8 |
| 20260503210831 | 45 | 148 | 0.0 | 1.0 | 0.00 | 0.87 | 0.17 | 94 | 1008.8 |
| 20260503210352 | 45 | 148 | 0.0 | 1.0 | 0.00 | 0.87 | 0.17 | 94 | 1008.8 |
| 20260503205831 | 45 | 148 | 0.0 | 1.0 | 0.00 | 0.87 | 0.17 | 94 | 1008.8 |
| 20260503205332 | 45 | 148 | 0.0 | 2.0 | 0.00 | 0.87 | 0.17 | 94 | 1008.9 |
| 20260503204859 | 45 | 148 | 1.0 | 2.0 | 0.00 | 0.87 | 0.17 | 94 | 1008.9 |
| 20260503204325 | 45 | 148 | 1.0 | 2.0 | 0.00 | 0.87 | 0.17 | 94 | 1008.9 |
| 20260503203833 | 45 | 148 | 1.0 | 3.0 | 0.00 | 0.87 | 0.17 | 94 | 1009.0 |
| 20260503203340 | 45 | 148 | 1.0 | 3.0 | 0.00 | 0.87 | 0.17 | 94 | 1009.1 |
| 20260503202846 | 45 | 148 | 1.0 | 2.0 | 0.00 | 0.87 | 0.17 | 94 | 1009.2 |
| 20260503202334 | 45 | 148 | 0.0 | 0.0 | 0.00 | 0.87 | 0.17 | 94 | 1009.3 |
| 20260503201839 | 45 | 148 | 0.0 | 0.0 | 0.00 | 0.87 | 0.17 | 94 | 1009.3 |
| 20260503201326 | 45 | 148 | 0.0 | 1.0 | 0.00 | 0.87 | 0.17 | 94 | 1009.4 |
| 20260503200832 | 45 | 148 | 0.0 | 1.0 | 0.00 | 0.87 | 0.17 | 94 | 1009.4 |
| 20260503200331 | 45 | 148 | 0.0 | 1.0 | 0.00 | 0.87 | 0.17 | 94 | 1009.5 |
| 20260503195838 | 45 | 148 | 1.0 | 1.0 | 0.00 | 0.87 | 0.17 | 94 | 1009.4 |
| 20260503195346 | 45 | 148 | 0.0 | 2.0 | 0.00 | 0.87 | 0.17 | 94 | 1009.4 |
| 20260503194831 | 45 | 148 | 0.0 | 2.0 | 0.00 | 0.87 | 0.17 | 94 | 1009.5 |
| 20260503194330 | 45 | 148 | 1.0 | 2.0 | 0.00 | 0.87 | 0.17 | 94 | 1009.4 |
| 20260503193831 | 45 | 148 | 0.0 | 1.0 | 0.00 | 0.87 | 0.17 | 94 | 1009.5 |
| 20260503193330 | 45 | 148 | 0.0 | 2.0 | 0.00 | 0.87 | 0.17 | 94 | 1009.5 |
| 20260503192840 | 45 | 148 | 0.0 | 1.0 | 0.00 | 0.87 | 0.17 | 94 | 1009.4 |
| 20260503192328 | 45 | 148 | 1.0 | 1.0 | 0.00 | 0.87 | 0.17 | 94 | 1009.5 |
| 20260503191828 | 45 | 148 | 1.0 | 1.0 | 0.00 | 0.87 | 0.17 | 94 | 1009.5 |
| 20260503191350 | 45 | 148 | 0.0 | 2.0 | 0.00 | 0.87 | 0.17 | 94 | 1009.6 |
| 20260503190830 | 45 | 148 | 0.0 | 2.0 | 0.00 | 0.87 | 0.17 | 94 | 1009.6 |
| 20260503190351 | 45 | 148 | 0.0 | 0.0 | 0.00 | 0.87 | 0.17 | 94 | 1009.6 |
| 20260503185851 | 45 | 148 | 0.0 | 1.0 | 0.00 | 0.87 | 0.17 | 94 | 1009.5 |
| 20260503185331 | 45 | 148 | 0.0 | 2.0 | 0.00 | 0.87 | 0.17 | 94 | 1009.4 |
| 20260503184832 | 45 | 148 | 1.0 | 2.0 | 0.00 | 0.87 | 0.17 | 94 | 1009.3 |
| 20260503184328 | 45 | 148 | 1.0 | 2.0 | 0.00 | 0.87 | 0.17 | 94 | 1009.4 |
| 20260503183849 | 45 | 148 | 1.0 | 3.0 | 0.00 | 0.87 | 0.17 | 93 | 1009.5 |
| 20260503183329 | 45 | 148 | 2.0 | 3.0 | 0.00 | 0.87 | 0.17 | 93 | 1009.5 |
| 20260503182830 | 45 | 148 | 0.0 | 2.0 | 0.00 | 0.87 | 0.17 | 93 | 1009.5 |
| 20260503182329 | 45 | 148 | 1.0 | 2.0 | 0.00 | 0.87 | 0.17 | 94 | 1009.6 |
| 20260503181829 | 45 | 148 | 0.0 | 2.0 | 0.00 | 0.87 | 0.17 | 93 | 1009.5 |
| 20260503181325 | 45 | 148 | 1.0 | 2.0 | 0.00 | 0.87 | 0.17 | 93 | 1009.6 |
| 20260503180826 | 45 | 148 | 1.0 | 2.0 | 0.00 | 0.87 | 0.17 | 94 | 1009.5 |
| 20260503180327 | 45 | 148 | 0.0 | 2.0 | 0.00 | 0.87 | 0.17 | 93 | 1009.5 |
| 20260503175835 | 45 | 148 | 1.0 | 2.0 | 0.00 | 0.87 | 0.17 | 93 | 1009.4 |
| 20260503175343 | 45 | 148 | 1.0 | 2.0 | 0.00 | 0.87 | 0.17 | 93 | 1009.4 |
| 20260503174831 | 45 | 148 | 1.0 | 3.0 | 0.00 | 0.87 | 0.17 | 93 | 1009.4 |
| 20260503174324 | 45 | 148 | 1.0 | 3.0 | 0.00 | 0.87 | 0.17 | 93 | 1009.4 |
| 20260503173847 | 45 | 148 | 1.0 | 5.0 | 0.00 | 0.87 | 0.17 | 93 | 1009.4 |
| 20260503173327 | 45 | 148 | 3.0 | 5.0 | 0.00 | 0.87 | 0.17 | 93 | 1009.4 |
| 20260503172828 | 45 | 149 | 1.0 | 3.0 | 0.00 | 0.87 | 0.17 | 93 | 1009.4 |
| 20260503172335 | 45 | 149 | 1.0 | 3.0 | 0.00 | 0.87 | 0.17 | 93 | 1009.4 |
| 20260503171828 | 45 | 149 | 1.0 | 3.0 | 0.00 | 0.87 | 0.17 | 93 | 1009.5 |
| 20260503171325 | 45 | 149 | 1.0 | 6.0 | 0.00 | 0.87 | 0.17 | 93 | 1009.6 |
| 20260503170825 | 45 | 149 | 2.0 | 5.0 | 0.00 | 0.87 | 0.17 | 93 | 1009.6 |
| 20260503170325 | 45 | 149 | 3.0 | 5.0 | 0.00 | 0.87 | 0.17 | 93 | 1009.7 |
| 20260503150834 | 45 | 128 | 3.0 | 6.0 | 0.00 | 0.87 | 0.17 | 93 | 1010.5 |
| 20260503150324 | 45 | 55 | 2.0 | 6.0 | 0.00 | 0.87 | 0.17 | 93 | 1010.5 |
| 20260503131331 | 44 | 122 | 3.0 | 7.0 | 0.00 | 0.87 | 0.17 | 94 | 1011.1 |
| 20260503130851 | 45 | 114 | 3.0 | 6.0 | 0.00 | 0.87 | 0.17 | 94 | 1011.1 |
| 20260503130330 | 45 | 72 | 4.0 | 6.0 | 0.00 | 0.87 | 0.17 | 94 | 1011.1 |
| 20260503110330 | 44 | 54 | 4.0 | 7.0 | 0.00 | 0.87 | 0.17 | 94 | 1011.1 |
| 20260503090331 | 44 | 83 | 4.0 | 10.0 | 0.00 | 0.87 | 0.17 | 94 | 1010.7 |
| 20260503081332 | 45 | 19 | 4.0 | 10.0 | 0.04 | 0.87 | 0.17 | 94 | 1010.5 |
| 20260503080840 | 45 | 72 | 5.0 | 9.0 | 0.04 | 0.87 | 0.17 | 94 | 1010.5 |
| 20260503080328 | 45 | 115 | 4.0 | 10.0 | 0.04 | 0.87 | 0.17 | 94 | 1010.5 |
| 20260503072851 | 45 | 38 | 4.0 | 13.0 | 0.04 | 0.83 | 0.17 | 93 | 1010.2 |
| 20260503072331 | 45 | 86 | 6.0 | 13.0 | 0.04 | 0.83 | 0.17 | 93 | 1010.2 |
| 20260503071856 | 45 | 209 | 5.0 | 13.0 | 0.04 | 0.83 | 0.17 | 93 | 1010.2 |
| 20260503071328 | 46 | 75 | 6.0 | 13.0 | 0.04 | 0.83 | 0.17 | 93 | 1010.1 |
| 20260503070828 | 46 | 360 | 5.0 | 10.0 | 0.08 | 0.83 | 0.17 | 93 | 1010.1 |
| 20260503070329 | 46 | 44 | 5.0 | 10.0 | 0.08 | 0.83 | 0.17 | 93 | 1010.1 |
| 20260503060331 | 51 | 78 | 3.0 | 6.0 | 0.28 | 0.75 | 0.15 | 94 | 1009.4 |
| 20260503054831 | 51 | 65 | 3.0 | 4.0 | 0.24 | 0.63 | 0.13 | 94 | 1009.4 |
| 20260503054352 | 51 | 94 | 1.0 | 4.0 | 0.24 | 0.59 | 0.12 | 93 | 1009.4 |
| 20260503053831 | 51 | 76 | 1.0 | 3.0 | 0.20 | 0.55 | 0.11 | 93 | 1009.5 |
| 20260503053352 | 51 | 77 | 1.0 | 3.0 | 0.20 | 0.51 | 0.10 | 93 | 1009.3 |
| 20260503052852 | 51 | 76 | 2.0 | 3.0 | 0.16 | 0.47 | 0.09 | 93 | 1009.3 |
| 20260503052331 | 51 | 283 | 1.0 | 2.0 | 0.20 | 0.47 | 0.09 | 93 | 1009.2 |
| 20260503051832 | 51 | 325 | 1.0 | 2.0 | 0.20 | 0.47 | 0.09 | 93 | 1009.2 |
| 20260503051340 | 51 | 325 | 0.0 | 2.0 | 0.20 | 0.47 | 0.09 | 93 | 1009.2 |
| 20260503050829 | 51 | 322 | 0.0 | 0.0 | 0.24 | 0.47 | 0.09 | 93 | 1009.2 |
| 20260503050350 | 51 | 322 | 0.0 | 0.0 | 0.24 | 0.47 | 0.09 | 93 | 1009.2 |
| 20260503045829 | 51 | 322 | 0.0 | 0.0 | 0.16 | 0.39 | 0.08 | 93 | 1009.2 |
| 20260503045331 | 50 | 322 | 0.0 | 0.0 | 0.16 | 0.39 | 0.08 | 93 | 1009.2 |
| 20260503044838 | 50 | 322 | 0.0 | 0.0 | 0.16 | 0.39 | 0.08 | 93 | 1009.2 |
| 20260503044328 | 50 | 322 | 0.0 | 0.0 | 0.12 | 0.35 | 0.07 | 93 | 1009.3 |